M.P.E.C. 2023-S62 Issued 2023 September 18, 11:58 UT The Minor Planet Electronic Circulars contain information on unusual minor planets, routine data on comets and natural satellites, and occasional editorial announcements. They are published on behalf of Division F of the International Astronomical Union by the Minor Planet Center, Smithsonian Astrophysical Observatory, Cambridge, MA 02138, U.S.A. Prepared using the Tamkin Foundation Computer Network MPC@CFA.HARVARD.EDU URL https://www.minorplanetcenter.net/ ISSN 1523-6714 2023 SQ Observations: K23S00Q* C2023 09 17.33726919 41 13.476+73 02 38.76 16.00cVES062T05 K23S00Q C2023 09 17.34004019 41 28.908+72 57 59.33 15.68cVES062T05 K23S00Q C2023 09 17.35671319 43 00.478+72 29 39.41 16.94cVES062T05 K23S00Q C2023 09 17.75701920 15 22.76 +60 11 20.0 16.6 RoES062K88 K23S00Q C2023 09 17.75733820 15 23.44 +60 10 41.7 16.7 RoES062K88 K23S00Q C2023 09 17.75764820 15 24.02 +60 10 05.9 16.6 RoES062K88 K23S00Q C2023 09 17.75951320 15 27.91 +60 06 26.8 16.8 RoES062K88 K23S00Q C2023 09 17.76013420 15 29.24 +60 05 14.5 16.5 RoES062K88 K23S00Q C2023 09 17.76044320 15 29.80 +60 04 37.7 16.5 RoES062K88 K23S00Q C2023 09 17.76106120 15 31.10 +60 03 25.3 16.4 RoES062K88 K23S00Q KB2023 09 17.77252420 15 08.01 +59 41 16.8 16.0 GXES062L76 K23S00Q KB2023 09 17.77351520 15 10.01 +59 39 17.8 15.7 GXES062L76 K23S00Q C2023 09 17.77376020 15 56.66 +59 38 27.8 16.0 RoES062K88 K23S00Q KB2023 09 17.77451020 15 11.98 +59 37 18.1 15.9 GXES062L76 K23S00Q C2023 09 17.77454820 15 58.20 +59 36 54.6 16.3 RoES062K88 K23S00Q KC2023 09 17.77465 20 16 00.47 +59 36 03.8 15.8 GXES062G02 K23S00Q C2023 09 17.77481220 15 58.76 +59 36 23.0 16.2 RoES062K88 K23S00Q C2023 09 17.77507520 15 59.26 +59 35 52.6 16.5 RoES062K88 K23S00Q KC2023 09 17.77511 20 16 01.36 +59 35 08.3 16.1 GXES062G02 K23S00Q KB2023 09 17.77550620 15 14.04 +59 35 18.5 16.5 GXES062L76 K23S00Q C2023 09 17.77560120 16 00.28 +59 34 50.1 16.7 RoES062K88 K23S00Q KC2023 09 17.77572 20 16 02.52 +59 33 56.2 16.5 GXES062G02 K23S00Q C2023 09 17.77586420 16 00.82 +59 34 18.8 16.7 RoES062K88 K23S00Q C2023 09 17.77612720 16 01.33 +59 33 47.8 17.0 RoES062K88 K23S00Q KB2023 09 17.77650320 15 16.01 +59 33 18.6 17.0 GXES062L76 K23S00Q KC2023 09 17.77952320 16 32.098+59 28 08.55 16.9 GVES062K63 K23S00Q KC2023 09 17.78425320 16 41.164+59 18 51.23 15.2 GVES062K63 K23S00Q KC2023 09 17.78542320 16 41.60 +59 17 16.6 14.3 RVES062M50 K23S00Q KC2023 09 17.78582320 16 42.32 +59 16 29.3 14.4 RVES062M50 K23S00Q KC2023 09 17.78607020 16 33.40 +59 12 36.2 15.3 GVES062G34 K23S00Q KC2023 09 17.78616220 16 44.781+59 15 05.42 15.5 GVES062K63 K23S00Q KC2023 09 17.78634720 16 43.23 +59 15 27.3 15.0 RVES062M50 K23S00Q KC2023 09 17.78685120 16 34.94 +59 11 03.6 16.1 GVES062G34 K23S00Q C2023 09 17.78732120 16 46.965+59 12 47.87 16.1 GVES062K63 K23S00Q KC2023 09 17.78841820 16 38.04 +59 07 56.3 16.9 GVES062G34 K23S00Q KC2023 09 17.78919920 16 39.55 +59 06 25.2 17.6 GVES062G34 K23S00Q KC2023 09 17.79007720 16 41.18 +59 04 39.6 17.0 GVES062G34 K23S00Q KC2023 09 17.79164120 16 44.28 +59 01 34.0 16.4 GVES062G34 K23S00Q KC2023 09 17.79227720 16 45.58 +59 00 18.6 15.7 GVES062G34 K23S00Q KC2023 09 17.79320820 16 47.39 +58 58 27.7 15.0 GVES062G34 K23S00Q KC2023 09 17.79360220 16 59.609+58 58 00.41 15.3 GVES062A17 K23S00Q KC2023 09 17.79399320 16 48.99 +58 56 54.6 14.5 GVES062G34 K23S00Q 1C2023 09 17.79413 20 16 53.37 +58 56 30.4 15.1 VXES062033 K23S00Q 1C2023 09 17.79436 20 16 53.82 +58 56 03.3 14.9 VXES062033 K23S00Q 1C2023 09 17.79458 20 16 54.26 +58 55 36.4 15.0 VXES062033 K23S00Q KB2023 09 17.79520120 15 53.12 +58 55 36.6 14.7 GXES062L76 K23S00Q KC2023 09 17.79590620 17 04.042+58 53 26.92 15.1 GVES062A17 K23S00Q KB2023 09 17.79609 20 14 58.45 +59 00 17.7 14.7 VZES062M44 K23S00Q KB2023 09 17.79661 20 14 59.40 +58 59 14.0 14.7 VZES062M44 K23S00Q KB2023 09 17.79669720 15 56.04 +58 52 34.5 15.0 GXES062L76 K23S00Q KB2023 09 17.79712 20 15 00.37 +58 58 11.1 14.6 VZES062M44 K23S00Q KB2023 09 17.79763 20 15 01.30 +58 57 07.8 15.0 VZES062M44 K23S00Q KC2023 09 17.79810620 17 08.282+58 49 05.34 16.2 GVES062A17 K23S00Q KC2023 09 17.79816920 17 07.008+58 51 21.61 15.9 GVES062K63 K23S00Q KB2023 09 17.79819520 15 58.97 +58 49 31.9 15.7 GXES062L76 K23S00Q KC2023 09 17.79904520 17 08.606+58 49 37.82 16.7 GVES062K63 K23S00Q KB2023 09 17.79969320 16 01.90 +58 46 29.5 17.1 GXES062L76 K23S00Q KC2023 09 17.79977920 17 09.945+58 48 10.41 17.4 GVES062K63 K23S00Q KB2023 09 17.80119020 16 04.89 +58 43 26.8 17.2 GXES062L76 K23S00Q KC2023 09 17.80335 20 16 45.13 +58 40 01.2 16.7 VqES062L04 K23S00Q KC2023 09 17.80504 20 16 48.25 +58 36 37.5 15.8 VqES062L04 K23S00Q KC2023 09 17.80672 20 16 51.39 +58 33 14.3 15.7 VqES062L04 K23S00Q KC2023 09 17.80837 20 16 54.44 +58 29 55.3 16.7 VqES062L04 K23S00Q KB2023 09 17.81049 20 17 20.37 +58 26 07.7 16.1 RZES062106 K23S00Q KC2023 09 17.81227220 17 23.98 +58 20 25.9 16.6 GVES062G34 K23S00Q KB2023 09 17.81367 20 17 26.09 +58 19 46.0 16.0 RZES062106 K23S00Q KC2023 09 17.81384120 17 26.93 +58 17 16.7 16.4 GVES062G34 K23S00Q KC2023 09 17.81540820 17 29.86 +58 14 08.8 16.5 GVES062G34 K23S00Q KC2023 09 17.81618920 17 31.30 +58 12 34.1 16.1 GVES062G34 K23S00Q KB2023 09 17.81684 20 17 31.80 +58 13 23.5 16.4 RZES062106 K23S00Q KC2023 09 17.81697120 17 32.79 +58 10 59.9 16.2 GVES062G34 K23S00Q KC2023 09 17.81775220 17 34.28 +58 09 25.7 15.8 GVES062G34 K23S00Q KC2023 09 17.81931720 17 37.15 +58 06 17.6 16.8 GVES062G34 K23S00Q KB2023 09 17.82002 20 17 37.42 +58 07 01.0 16.2 RZES062106 K23S00Q KC2023 09 17.82166920 17 41.55 +58 01 32.7 16.1 GVES062G34 K23S00Q KC2023 09 17.82525 20 17 49.62 +57 54 23.8 15.5 RVES062113 K23S00Q KC2023 09 17.82570 20 17 50.45 +57 53 28.6 15.5 RVES062113 K23S00Q KC2023 09 17.82616 20 17 51.32 +57 52 33.5 16.1 RVES062113 K23S00Q KC2023 09 17.82661 20 17 52.11 +57 51 38.9 16.5 RVES062113 K23S00Q KC2023 09 17.83102 20 17 55.11 +57 43 43.6 16.4 GVES062G00 K23S00Q KC2023 09 17.83111 20 17 55.28 +57 43 33.6 16.4 GVES062G00 K23S00Q KC2023 09 17.83168 20 17 56.25 +57 42 22.6 16.5 GVES062G00 K23S00Q KC2023 09 17.83193 20 17 56.72 +57 41 52.6 16.5 GVES062G00 K23S00Q KC2023 09 17.83235 20 17 57.52 +57 41 02.6 16.6 GVES062G00 K23S00Q KC2023 09 17.83276 20 17 58.20 +57 40 12.0 16.9 GVES062G00 K23S00Q KC2023 09 17.83407 20 18 09.58 +57 39 29.2 17.8 GVES062104 K23S00Q KC2023 09 17.83525 20 18 11.59 +57 37 06.0 VES062104 K23S00Q KC2023 09 17.83643 20 18 13.62 +57 34 42.7 17.6 GVES062104 K23S00Q KC2023 09 17.83761 20 18 15.59 +57 32 19.2 17.0 GVES062104 K23S00Q KC2023 09 17.83879 20 18 17.61 +57 29 55.6 VES062104 K23S00Q KC2023 09 17.83951820 18 12.27 +57 27 51.4 14.7 GVES062L01 K23S00Q KC2023 09 17.84030020 18 13.60 +57 26 16.1 14.8 GVES062L01 K23S00Q KC2023 09 17.84069020 18 14.27 +57 25 28.6 14.8 GVES062L01 K23S00Q KC2023 09 17.84108020 18 14.95 +57 24 40.9 14.8 GVES062L01 K23S00Q KC2023 09 17.84151620 18 15.68 +57 23 47.8 14.9 GVES062L01 K23S00Q KC2023 09 17.84234420 18 17.14 +57 22 06.5 15.4 GVES062L01 K23S00Q KC2023 09 17.84312920 18 18.52 +57 20 30.3 16.0 GVES062L01 K23S00Q KC2023 09 17.84430320 18 20.49 +57 18 07.3 16.8 GVES062L01 K23S00Q KB2023 09 17.87423120 19 12.11 +56 16 25.7 16.3 GXES062595 K23S00Q KB2023 09 17.87460620 19 12.72 +56 15 39.5 16.6 GXES062595 K23S00Q KB2023 09 17.87499620 19 13.41 +56 14 50.8 16.8 GXES062595 K23S00Q KC2023 09 17.91153620 20 13.08 +54 58 58.4 16.8 GVES062L01 K23S00Q KC2023 09 17.91205720 20 13.94 +54 57 52.7 16.9 GVES062L01 K23S00Q KC2023 09 17.91257920 20 14.80 +54 56 47.0 16.9 GVES062L01 K23S00Q KC2023 09 17.91310120 20 15.66 +54 55 41.3 16.9 GVES062L01 K23S00Q KC2023 09 17.91362320 20 16.55 +54 54 35.2 16.8 GVES062L01 K23S00Q 1C2023 09 17.92317 20 19 57.10 +54 29 41.0 17.5 GVES062C40 K23S00Q 1C2023 09 17.92359 20 19 57.90 +54 28 46.8 17.5 GVES062C40 K23S00Q 1C2023 09 17.92455 20 19 59.77 +54 26 44.0 16.6 GVES062C40 K23S00Q KB2023 09 17.92548520 21 02.22 +54 32 10.9 17.0 GXES062958 K23S00Q 1C2023 09 17.92584 20 20 02.27 +54 23 59.0 17.5 GVES062C40 K23S00Q 1C2023 09 17.92592 20 20 02.42 +54 23 48.8 16.7 GVES062C40 K23S00Q 1C2023 09 17.92807 20 20 06.60 +54 19 13.7 17.7 GVES062C40 K23S00Q KB2023 09 17.92884820 21 07.34 +54 25 08.7 16.5 GXES062958 K23S00Q KB2023 09 17.93224220 21 12.48 +54 18 01.7 16.7 GXES062958 K23S00Q 1C2023 09 17.93446 20 20 19.08 +54 05 34.0 16.0 GVES062C40 K23S00Q 1C2023 09 17.93668 20 20 23.41 +54 00 49.6 16.6 GVES062C40 K23S00Q 1C2023 09 17.93886 20 20 27.70 +53 56 09.4 16.7 GVES062C40 K23S00Q 1C2023 09 18.14090 20 27 11.54 +46 45 38.3 15.0 VXES062033 K23S00Q 1C2023 09 18.14113 20 27 11.95 +46 45 08.8 15.1 VXES062033 K23S00Q 1C2023 09 18.14135 20 27 12.40 +46 44 39.7 15.1 VXES062033 Observer details: 033 Karl Schwarzschild Observatory, Tautenburg. Observers S. Melnikov, C. Hogner, F. Ludwig, M. Hartmann, B. Stecklum. Measurer B. Stecklum. 1.34-m f/3 Schmidt + CCD. 104 San Marcello Pistoiese. Observers P. Bacci, M. Maestripieri. Measurer P. Bacci. 0.60-m f/4.0 reflector + CCD. 106 Crni Vrh. Observer H. Mikuz. 0.60-m f/3.3 reflector + CMO. 113 Volkssternwarte Drebach, Schoenbrunn. Observer G. Lehmann. 0.5-m f/4.6 reflector + CCD. 595 Farra d'Isonzo. Observer E. Pettarin. 0.40-m f/3.3 reflector + CMO. 958 Observatoire de Dax. Observers P. Dupouy, J. Laborde. Measurer P. Dupouy. 0.30-m f/5 Schmidt-Cassegrain + CMO. A17 Guidestar Observatory, Weinheim. Observers M. Emmerich, S. Melchert. 0.36-m f/6.0 Schmidt-Cassegrain + CCD. C40 Kuban State University Astrophysical Observatory. Observers A. Ivanov, A. Barcov, V. Ivanov, V. Lysenko, N. Yakovenko, N. Ivanova, N. Gorbunov, G. Kurbatov, P. Shchukin, V. Roshchupko. Measurer A. Ivanov. 0.51-m f/8 reflector + CCD. G00 AZM Martinsberg, Oed. Observers M. Jaeger, E. Prosperi, S. Prosperi. Measurer M. Jaeger. 0.4-m f/3.2 reflector + CCD. G02 KYSUCE Observatory, Kysucke Nove Mesto. Observer M. Urbanik. 0.40-m f/6.8 Corrected Dall-Kirkham + CCD. G34 Oberfrauendorf. Observer T. Felber. 0.35-m f/6.3 Schmidt-Cassegrain + CCD. K63 G. Pascoli Observatory, Castelvecchio Pascoli. Observer R. Bacci. 0.41-m f/3.75 0.41m f/3.2 Newton + CCD. K88 GINOP-KHK, Piszkesteto. Observer K. Sarneczky. 0.60-m Schmidt + CCD. L01 Visnjan Observatory, Tican. Observers K. Korlevic, G. Kervina. Measurer K. Korlevic. 1.0-m f/2.9 reflector + CCD. L04 ROASTERR-1 Observatory, Cluj-Napoca. Observer L. Hudin. 0.3-m f/5 reflector + CCD. L76 Nomad Observatory, Kochevanchik. Observer E. Romas. 0.25-m f/4 Newtonian + CMO. M44 Al-Khatim Observatory, Abu Dhabi. Observer M. Odeh. 0.36-m f/7.7 SC + CMO. M50 Virtual Telescope Project, Manciano. Observer G. Masi. 0.36-m f/6.9 Schmidt-Cassegrain + CCD. T05 ATLAS-HKO, Haleakala. Observers L. Denneau, R. Siverd, J. Tonry, H. Weiland. Measurers L. Denneau, N. Erasmus, A. Fitzsimmons, A. Lawrence, J. Robinson, R. Siverd, J. Tonry, H. Weiland. 0.5-m Reflector + CCD. Orbital elements: 2023 SQ Earth MOID = 0.0056 AU Epoch 2023 Sept. 13.0 TT = JDT 2460200.5 Veres M 139.45571 (2000.0) P Q n 1.34377683 Peri. 17.38847 -0.96555317 +0.26017735 a 0.8133010 Node 177.68172 -0.24861603 -0.91807993 e 0.2674057 Incl. 5.46039 -0.07679285 -0.29906017 P 0.73 H 25.04 G 0.15 U 6 Residuals in seconds of arc 230917 T05 0.0 0.2- 230917 G34 0.3+ 0.2+ 230917 G00 0.4- 0.1+ 230917 T05 0.1- 0.1+ 230917 033 0.1- 0.2+ 230917 G00 0.0 1.2+ 230917 T05 0.3+ 0.1- 230917 033 0.0 0.4+ 230917 G00 0.5- 0.5+ 230917 K88 0.4- 1.2+ 230917 033 0.0 0.3- 230917 104 0.1+ 0.0 230917 K88 0.2- 0.3+ 230917 L76 0.1- 0.5+ 230917 104 0.0 0.0 230917 K88 0.7- 0.9+ 230917 A17 0.0 0.0 230917 104 0.2+ 0.1+ 230917 K88 0.2- 0.5+ 230917 M44 0.3+ 1.1- 230917 104 0.2- 0.0 230917 K88 0.2+ 1.1+ 230917 M44 0.1+ 0.5- 230917 104 0.1- 0.1- 230917 K88 0.3- 0.6+ 230917 L76 0.2- 0.3+ 230917 L01 0.3- 0.7+ 230917 K88 0.0 0.8+ 230917 M44 0.1+ 0.3- 230917 L01 0.5- 0.8+ 230917 L76 0.0 0.3+ 230917 M44 0.1- 0.5- 230917 L01 0.5- 0.8+ 230917 L76 0.0 0.4+ 230917 A17 0.1+ 0.1- 230917 L01 0.5- 0.7+ 230917 K88 0.0 0.7+ 230917 K63 0.2+ 0.4- 230917 L01 0.6- 0.9+ 230917 L76 0.2- 0.3+ 230917 L76 0.3- 0.1+ 230917 L01 0.3- 0.7+ 230917 K88 0.1- 0.8+ 230917 K63 0.2+ 0.0 230917 L01 0.1- 0.4+ 230917 G02 0.8+ 0.7+ 230917 L76 0.3- 0.1+ 230917 L01 0.5- 0.9+ 230917 K88 0.2+ 0.4+ 230917 K63 0.2+ 0.0 230917 595 0.1- 0.7- 230917 K88 0.0 1.1+ 230917 L76 0.1+ 0.1- 230917 595 0.3- 0.5- 230917 G02 0.6+ 0.4- 230917 L04 0.4+ 0.8- 230917 595 0.1+ 0.8- 230917 L76 0.2+ 0.5+ 230917 L04 0.1+ 0.6- 230917 L01 0.4- 0.8+ 230917 K88 0.1- 1.0+ 230917 L04 0.2+ 0.9- 230917 L01 0.4- 0.7+ 230917 G02 0.1+ 0.3- 230917 L04 0.0 0.4- 230917 L01 0.4- 0.8+ 230917 K88 0.0 0.8+ 230917 106 0.3+ 0.2- 230917 L01 0.5- 0.9+ 230917 K88 0.1- 1.0+ 230917 G34 0.1+ 0.2- 230917 L01 0.3- 0.6+ 230917 L76 0.0 0.6+ 230917 106 0.0 0.5+ 230917 C40 0.1+ 0.4+ 230917 K63 0.1- 0.0 230917 G34 0.1+ 0.6- 230917 C40 0.0 0.1- 230917 K63 0.4+ 0.3+ 230917 G34 0.0 0.2+ 230917 C40 0.0 0.0 230917 M50 0.2+ 0.4- 230917 G34 0.1- 0.4- 230917 958 0.3- 0.3+ 230917 M50 0.0 0.4- 230917 106 0.1+ 0.2- 230917 C40 0.0 0.0 230917 G34 0.3+ 0.2- 230917 G34 0.1+ 0.3- 230917 C40 0.1- 0.1+ 230917 K63 0.6+ 0.1- 230917 G34 0.3+ 0.3- 230917 C40 0.1- 0.3+ 230917 M50 0.5- 0.5- 230917 G34 0.1- 0.4+ 230917 958 0.2- 0.4+ 230917 G34 0.2+ 0.1- 230917 106 0.5- 1.1+ 230917 958 0.3- 0.2+ 230917 K63 0.6+ 0.8- 230917 G34 0.2+ 0.4- 230917 C40 0.0 0.3- 230917 G34 0.2+ 1.3- 230917 113 (0.4+ 1.3-) 230917 C40 0.1- 0.2+ 230917 G34 0.0 0.4+ 230917 113 (0.4+ 2.0-) 230917 C40 0.1+ 0.2- 230917 G34 0.7- 0.9- 230917 113 (0.6+ 1.5-) 230918 033 0.0 0.6- 230917 G34 0.5- 0.4- 230917 113 (0.3+ 1.5-) 230918 033 0.2- 0.4- 230917 G34 0.1- 0.1- 230917 G00 0.2- 0.5+ 230918 033 0.1+ 1.1- 230917 G34 0.2- 0.2- 230917 G00 0.2- 1.4+ 230917 A17 0.1+ 0.0 230917 G00 0.6- 0.3- Ephemeris: 2023 SQ a,e,i = 0.81, 0.27, 5 q = 0.5958 Date TT R. A. (2000) Decl. Delta r Elong. Phase V 2023 08 19 09 22 00.6 +41 12 34 0.1074 0.9197 28.9 147.9 28.1 ... 2023 09 03 09 16 17.1 +46 48 39 0.05282 0.9712 43.4 134.4 24.8 ... 2023 09 11 09 19 55.5 +54 12 49 0.02541 0.9924 54.6 124.2 22.2 ... 2023 09 17 18 35 38.3 +80 48 35 0.0069691.0054 89.8 89.8 17.4 2023 09 18 20 24 25.5 +51 57 13 0.0057741.0073 112.0 67.7 16.2 2023 09 19 20 43 33.6 +19 40 33 0.0065131.0091 130.9 48.8 16.0 ... 2023 09 25 21 03 47.6 -29 00 36 0.02463 1.0183 127.6 51.3 18.9 ... 2023 10 03 21 10 43.8 -35 54 49 0.05200 1.0265 118.3 59.2 20.8 ... 2023 10 18 21 22 38.1 -38 03 30 0.1027 1.0291 105.7 68.8 22.6 M. P. C. Staff (C) Copyright 2023 MPC M.P.E.C. 2023-S62
